Back to catalog

STARLINK-32932

AliveCommunicationsVLEO
NORAD 63083·PAYLOAD·🇺🇸 United States

Launched Feb 23, 2025 from Vandenberg Space Force Base

Loading…

Next Passes (next 24 hours)

TLE

FreshSource: CelesTrak SupGP

Epoch: Sep 14, 2026, 21:49 UTC

1 63083C 25037G   26257.90951389  .00036662  00000+0  12753-2 0  2572
2 63083  70.0007 235.5743 0003025 250.5288 350.6976 15.29560980    17

Track STARLINK-32932 in real time with AllMySat

Download on the App Store